[[{"header":{"parameterUnit":"m.s-1","parameterCategory":1,"la1":30.2991,"la2":30.254,"lo1":-89.0895,"lo2":-89.0444,"dy":0.0017,"dx":0.0017,"nx":28,"ny":28,"refTime":"2025-03-03T03:00:00:Z","depth":0,"parameterNumber":2,"parameterNumberName":"U-component_of_WINDS"},"data":[0,0,0,0,0,0,0,0,0,0,0,0,0,0,0,0,0,0,0,0,0,0,0,0,0,0,0,0,0,0,0,0,0,0,0,0,0,0,0,0,0,0,0,0,0,0,0,0,0,0,0,0,0,0,0,0,0,0,-3.5211,-3.5213,0,-3.5363,-3.5365,-3.5367,-3.5434,-3.5433,-3.5433,-3.5433,-3.5594,-3.5599,-3.5603,0,0,0,0,0,0,0,0,0,0,0,0,0,-3.4984,-3.4988,-3.5211,-3.5213,-3.5215,-3.5363,-3.5365,-3.5367,-3.5434,-3.5433,-3.5433,-3.5433,-3.5593,-3.5598,-3.5603,0,0,0,0,0,0,0,0,0,0,0,0,0,-3.5104,-3.4989,-3.5211,-3.5266,-3.5272,-3.5362,-3.5365,-3.5368,-3.5434,-3.5433,-3.5433,-3.5433,-3.5591,-3.5598,-3.5604,-3.5653,0,0,-3.5625,-3.5628,0,0,0,0,0,0,0,0,-3.5097,-3.5113,-3.5256,-3.5262,-3.5269,-3.5379,-3.5344,-3.5463,-3.5434,-3.5372,-3.5433,-3.5432,-3.5523,-3.5536,-3.5565,-3.566,-3.5667,-3.5625,-3.563,-3.5633,-3.5634,0,0,0,0,0,0,0,-3.5089,-3.5106,-3.5271,-3.5258,-3.5266,-3.5285,-3.5301,-3.5367,-3.5448,-3.5378,-3.5383,-3.54,-3.5527,-3.5558,-3.5569,-3.567,-3.5625,-3.5631,-3.5635,-3.5638,-3.5814,-3.5815,0,0,0,0,0,0,-3.5071,-3.5099,-3.5267,-3.5276,-3.5181,-3.5289,-3.5308,-3.5344,-3.5448,-3.5463,-3.54,-3.5402,-3.5547,-3.5561,-3.5575,-3.564,-3.5632,-3.5639,-3.5643,-3.5814,-3.5815,-3.5815,0,0,0,0,0,0,-3.5066,-3.5085,-3.526,-3.5189,-3.5213,-3.5293,-3.5334,-3.5347,-3.5379,-3.5464,-3.548,-3.5417,-3.5547,-3.5566,-3.5633,-3.5646,-3.5642,-3.5648,-3.5813,-3.5814,-3.5815,-3.5768,0,0,0,0,0,0,-3.5059,-3.5083,-3.5101,-3.5189,-3.5216,-3.5314,-3.5335,-3.5351,-3.539,-3.5394,-3.5484,-3.5499,-3.5548,-3.5623,-3.564,-3.5655,-3.5653,-3.5812,-3.5814,-3.5815,-3.5769,-3.5767,-3.5766,0,0,0,0,0,-3.5051,-3.5082,-3.5101,-3.5121,-3.524,-3.5314,-3.533,-3.5385,-3.539,-3.541,-3.5465,-3.5496,-3.5642,-3.5629,-3.5649,-3.5667,-3.5812,-3.5813,-3.5815,-3.5769,-3.5768,-3.5766,0,0,0,0,0,0,-3.4996,-3.5095,-3.5117,-3.5178,-3.5237,-3.5325,-3.5351,-3.5381,-3.5441,-3.5443,-3.5511,-3.5531,-3.5592,-3.5637,-3.562,-3.572,-3.573,-3.5735,-3.5689,-3.5688,-3.5686,-3.5674,-3.5659,0,0,0,0,0,-3.499,-3.504,-3.5125,-3.5171,-3.5199,-3.527,-3.5305,-3.5342,-3.5406,-3.5432,-3.5492,-3.5555,-3.5616,-3.5654,-3.5715,-3.5776,-3.5797,-3.5798,-3.5797,-3.5795,-3.5799,-3.5836,-3.5838,-3.582,-3.582,-3.582,0,0,-3.498,-3.5041,-3.5069,-3.5162,-3.5212,-3.5264,-3.5291,-3.5345,-3.5385,-3.5441,-3.5508,-3.5554,-3.563,-3.5694,-3.5725,-3.5733,-3.5809,-3.5797,-3.5795,-3.58,-3.5837,-3.5839,-3.584,-3.5821,-3.5821,-3.582,0,0,-3.4989,-3.5039,-3.5083,-3.5132,-3.5207,-3.5254,-3.5264,-3.5349,-3.5381,-3.5449,-3.5492,-3.5542,-3.5644,-3.5696,-3.5736,-3.5765,-3.5796,-3.5783,-3.5775,-3.581,-3.5812,-3.5813,-3.5824,-3.5827,-3.5787,-3.5786,-3.5786,0,-3.4968,-3.5046,-3.5102,-3.5154,-3.5194,-3.5245,-3.5291,-3.5337,-3.5429,-3.5456,-3.5463,-3.5592,-3.5647,-3.5725,-3.5731,-3.5762,-3.5777,-3.5773,-3.5807,-3.5809,-3.5811,-3.5823,-3.5826,-3.5784,-3.5785,-3.5785,-3.5785,0,-3.5016,-3.507,-3.5097,-3.5182,-3.5225,-3.5274,-3.5339,-3.5377,-3.5411,-3.5457,-3.5527,-3.5594,-3.5668,-3.569,-3.5724,-3.5773,-3.5775,-3.5793,-3.5804,-3.581,-3.5822,-3.5826,-3.5781,-3.5782,-3.5783,-3.5783,0,0,-3.4994,-3.5109,-3.5118,-3.5158,-3.5244,-3.5288,-3.534,-3.5411,-3.5443,-3.5505,-3.5551,-3.5636,-3.5654,-3.5699,-3.5739,-3.577,-3.5789,-3.5785,-3.5788,-3.5784,-3.5849,-3.5834,-3.5838,-3.581,-3.5812,-3.5812,-3.5842,0,-3.5015,-3.5107,-3.5159,-3.5231,-3.5282,-3.5333,-3.5378,-3.5437,-3.5483,-3.5535,-3.5586,-3.5646,-3.5664,-3.5691,-3.5724,-3.578,-3.5803,-3.5779,-3.5856,-3.5858,-3.5835,-3.5844,-3.583,-3.5854,-3.5847,-3.5848,-3.5849,0,-3.5051,-3.511,-3.5185,-3.5267,-3.529,-3.533,-3.54,-3.5448,-3.5517,-3.5548,-3.5598,-3.5639,-3.5698,-3.5704,-3.5787,-3.5769,-3.5804,-3.5836,-3.5839,-3.5848,-3.5853,-3.5854,-3.5864,-3.5867,-3.5857,-3.5856,-3.5855,0,-3.5027,-3.5126,-3.5184,-3.5216,-3.5312,-3.5339,-3.5381,-3.5449,-3.5489,-3.5551,-3.5578,-3.5647,-3.5685,-3.5738,-3.5797,-3.5796,-3.5874,-3.5886,-3.5903,-3.5902,-3.5918,-3.5916,-3.5933,-3.594,-3.5939,-3.5939,-3.5939,0,-3.5045,-3.509,-3.5175,-3.521,-3.5263,-3.5324,-3.5374,-3.542,-3.5481,-3.5528,-3.5577,-3.5621,-3.5696,-3.5749,-3.5796,-3.5858,-3.5875,-3.5903,-3.5915,-3.5899,-3.5895,-3.5923,-3.5923,-3.594,-3.594,-3.594,-3.594,0,-3.5028,-3.5086,-3.5153,-3.5238,-3.5261,-3.5295,-3.5369,-3.5407,-3.5455,-3.5515,-3.5532,-3.5608,-3.5674,-3.5738,-3.5827,-3.5858,-3.592,-3.5936,-3.5896,-3.5903,-3.5917,-3.5915,-3.5952,-3.5961,-3.5961,-3.5961,-3.5961,0,-3.5035,-3.507,-3.5158,-3.5192,-3.5232,-3.5287,-3.5327,-3.5389,-3.543,-3.5511,-3.554,-3.5609,-3.5667,-3.5771,-3.5835,-3.5904,-3.5922,-3.593,-3.5933,-3.5915,-3.5923,-3.592,-3.5924,-3.5929,-3.5928,-3.5928,-3.5928,0,-3.5042,-3.5069,-3.5124,-3.5189,-3.5236,-3.5291,-3.5348,-3.5374,-3.5448,-3.5491,-3.5558,-3.5603,-3.5693,-3.5762,-3.5838,-3.5883,-3.5919,-3.5927,-3.5934,-3.5918,-3.5894,-3.5908,-3.5892,-3.5926,-3.5926,-3.5926,-3.5926,-3.5926,-3.5037,-3.5071,-3.5138,-3.5198,-3.5248,-3.53,-3.5339,-3.5392,-3.5448,-3.5524,-3.5558,-3.5626,-3.5696,-3.5801,-3.5847,-3.5902,-3.5911,-3.5922,-3.5925,-3.5927,-3.5923,-3.5884,-3.5916,-3.5916,-3.5916,-3.5917,-3.5917,0,-3.5047,-3.5092,-3.5147,-3.5224,-3.5272,-3.5299,-3.5364,-3.5403,-3.5461,-3.5522,-3.5578,-3.5655,-3.5722,-3.5792,-3.5863,-3.5894,-3.5912,-3.5911,-3.5909,-3.592,-3.5911,-3.5897,-3.5895,-3.5895,-3.5895,-3.5895,-3.5895,-3.5895,-3.5057,-3.5116,-3.5151,-3.5235,-3.5282,-3.5346,-3.5381,-3.543,-3.5479,-3.5563,-3.5618,-3.5662,-3.5727,-3.5804,-3.5867,-3.5886,-3.591,-3.5904,-3.5928,-3.5919,-3.592,-3.5921,-3.5909,-3.5909,-3.5909,-3.5932,-3.5932,-3.5933]},{"header":{"parameterUnit":"m.s-1","parameterCategory":1,"la1":30.2991,"la2":30.254,"lo1":-89.0895,"lo2":-89.0444,"dy":0.0017,"dx":0.0017,"nx":28,"ny":28,"refTime":"2025-03-03T03:00:00:Z","depth":0,"parameterNumber":3,"parameterNumberName":"V-component_of_WINDS"},"data":[0,0,0,0,0,0,0,0,0,0,0,0,0,0,0,0,0,0,0,0,0,0,0,0,0,0,0,0,0,0,0,0,0,0,0,0,0,0,0,0,0,0,0,0,0,0,0,0,0,0,0,0,0,0,0,0,0,0,8.1847,8.1847,0,8.1803,8.1802,8.1802,8.1735,8.1734,8.1733,8.1732,8.1684,8.1684,8.1683,0,0,0,0,0,0,0,0,0,0,0,0,0,8.1875,8.1874,8.1847,8.1847,8.1846,8.1803,8.1802,8.1801,8.1736,8.1734,8.1733,8.1731,8.1684,8.1684,8.1683,0,0,0,0,0,0,0,0,0,0,0,0,0,8.185,8.1874,8.1847,8.1808,8.1804,8.1803,8.1802,8.1801,8.1736,8.1734,8.1732,8.1731,8.1684,8.1684,8.1683,8.1716,0,0,8.1682,8.1682,0,0,0,0,0,0,0,0,8.1851,8.1849,8.1814,8.1811,8.1806,8.1773,8.1794,8.1773,8.1736,8.1762,8.1732,8.173,8.1715,8.1712,8.1707,8.1714,8.1712,8.1682,8.1682,8.1682,8.1682,0,0,0,0,0,0,0,8.1853,8.185,8.1829,8.1814,8.1809,8.1792,8.1787,8.179,8.1748,8.1759,8.1754,8.175,8.1712,8.1708,8.1705,8.1711,8.1682,8.1682,8.1682,8.1682,8.1746,8.1748,0,0,0,0,0,0,8.1861,8.1852,8.1831,8.1828,8.1825,8.1793,8.1787,8.1785,8.1748,8.1741,8.1752,8.1747,8.1709,8.1706,8.1704,8.1742,8.1682,8.1682,8.1682,8.1744,8.1747,8.1749,0,0,0,0,0,0,8.1861,8.1859,8.1833,8.1839,8.1834,8.1795,8.1793,8.1785,8.1781,8.1742,8.1735,8.1755,8.1707,8.1704,8.1714,8.1739,8.1682,8.1681,8.1742,8.1745,8.1748,8.1818,0,0,0,0,0,0,8.1863,8.186,8.1872,8.184,8.1834,8.1845,8.1794,8.1786,8.1781,8.1774,8.1743,8.1736,8.1706,8.1715,8.1714,8.1738,8.1681,8.174,8.1743,8.1747,8.1813,8.1823,8.1831,0,0,0,0,0,8.1864,8.1892,8.1873,8.1871,8.1848,8.1846,8.1843,8.1808,8.1783,8.1795,8.1771,8.1737,8.1737,8.1717,8.1715,8.1739,8.1738,8.1742,8.1747,8.1809,8.1821,8.1831,0,0,0,0,0,0,8.1927,8.1887,8.1865,8.1884,8.1869,8.1835,8.1849,8.1821,8.1812,8.1806,8.1763,8.1756,8.1773,8.1756,8.1735,8.1771,8.1732,8.1737,8.1781,8.1791,8.18,8.1804,8.1681,0,0,0,0,0,8.1943,8.1945,8.191,8.193,8.1924,8.1888,8.1885,8.186,8.1843,8.1836,8.1812,8.1796,8.1792,8.1791,8.1785,8.181,8.1804,8.1826,8.1835,8.1842,8.1847,8.1862,8.1872,8.1763,8.1763,8.1763,0,0,8.1976,8.1955,8.1958,8.1942,8.1928,8.1931,8.1883,8.1887,8.189,8.1836,8.1846,8.1828,8.1807,8.1826,8.1833,8.1813,8.1876,8.1848,8.1854,8.1854,8.1867,8.1878,8.1887,8.1766,8.1765,8.1765,0,0,8.2039,8.2022,8.2039,8.2026,8.2005,8.1982,8.1986,8.1957,8.1944,8.1953,8.1913,8.1915,8.1909,8.1897,8.189,8.1952,8.1922,8.1951,8.1998,8.2013,8.2022,8.203,8.2054,8.2063,8.1956,8.1956,8.1956,0,8.2082,8.2087,8.205,8.2059,8.2054,8.2007,8.2024,8.2013,8.1991,8.1989,8.1967,8.1961,8.1943,8.196,8.1976,8.1971,8.1976,8.1955,8.2024,8.2031,8.2037,8.206,8.2069,8.196,8.1959,8.1959,8.1959,0,8.2143,8.2146,8.2162,8.2145,8.2141,8.2154,8.212,8.2121,8.2097,8.2076,8.2087,8.2065,8.2055,8.2057,8.2032,8.2072,8.206,8.2032,8.1993,8.2052,8.2073,8.2081,8.1965,8.1964,8.1963,8.1962,0,0,8.2242,8.2207,8.2214,8.2207,8.2182,8.2184,8.2195,8.2188,8.2191,8.2178,8.2187,8.2185,8.2159,8.2152,8.2125,8.2139,8.2193,8.2109,8.2108,8.2127,8.2238,8.2261,8.2271,8.2173,8.2174,8.2175,8.224,0,8.2301,8.232,8.2289,8.2314,8.2319,8.2276,8.2286,8.2272,8.2254,8.2255,8.2234,8.2234,8.2199,8.2195,8.2206,8.2184,8.2215,8.2179,8.2182,8.2183,8.219,8.2281,8.2305,8.2367,8.2248,8.2249,8.225,0,8.2372,8.2366,8.2393,8.237,8.237,8.238,8.2372,8.2373,8.2358,8.2343,8.2337,8.2307,8.2317,8.228,8.2295,8.2271,8.2271,8.2261,8.2262,8.2262,8.2221,8.2286,8.2386,8.2396,8.2262,8.2261,8.226,0,8.2446,8.2443,8.246,8.2455,8.2427,8.2436,8.2425,8.2408,8.2406,8.2399,8.2398,8.2392,8.2389,8.2385,8.2355,8.233,8.2374,8.2333,8.2364,8.2365,8.2375,8.2375,8.2479,8.2373,8.2373,8.2373,8.2372,0,8.2516,8.2534,8.2493,8.2503,8.2523,8.2488,8.2509,8.2493,8.2479,8.2486,8.2448,8.2455,8.2414,8.2418,8.2394,8.2411,8.2409,8.2399,8.2393,8.2403,8.2405,8.2403,8.2399,8.2375,8.2374,8.2374,8.2374,0,8.2601,8.2573,8.2589,8.2563,8.2557,8.2574,8.2551,8.256,8.254,8.255,8.255,8.2518,8.2521,8.249,8.2486,8.247,8.2499,8.2484,8.2505,8.2501,8.2534,8.2532,8.2641,8.2654,8.2539,8.254,8.2541,0,8.2648,8.2662,8.2638,8.2641,8.2633,8.2637,8.2636,8.2602,8.2603,8.2588,8.2599,8.2599,8.2597,8.2603,8.2579,8.2577,8.2562,8.2601,8.2562,8.2573,8.2566,8.2566,8.2568,8.2609,8.2611,8.2612,8.2613,0,8.2736,8.2722,8.2723,8.272,8.2721,8.2716,8.2709,8.2713,8.2676,8.2679,8.2682,8.2681,8.2678,8.2679,8.2672,8.266,8.2632,8.2626,8.2633,8.2644,8.2657,8.2653,8.2529,8.2623,8.2622,8.2621,8.2621,8.262,8.2805,8.2816,8.2803,8.2805,8.2797,8.2792,8.28,8.2782,8.2784,8.2781,8.276,8.2767,8.2754,8.2742,8.2734,8.2739,8.2721,8.273,8.2733,8.2737,8.2744,8.2655,8.2738,8.2737,8.2737,8.2737,8.2737,0,8.2892,8.2882,8.2885,8.2878,8.2881,8.2854,8.2846,8.285,8.2857,8.2847,8.2847,8.2852,8.2853,8.2831,8.2829,8.2838,8.2825,8.2839,8.2839,8.2837,8.276,8.2755,8.285,8.285,8.285,8.285,8.285,8.285,8.2939,8.2958,8.2943,8.2959,8.2948,8.2956,8.2954,8.2949,8.2942,8.2949,8.2951,8.2937,8.2923,8.2921,8.2921,8.2915,8.2917,8.2936,8.2925,8.2853,8.2842,8.2832,8.2827,8.2936,8.2936,8.3003,8.3003,8.3004]}]]